パンスターズ彗星

C/2011 Q1 ( PanSTARRS )

English version
Home page
Updated on December 7, 2011

---------------------------------------------------------------------

・ プロフィール

発見日 2011年8月20日
発見光度 20.6等
発見者 Pan-STARRS 1 telescope (Haleakala)

・ 写真集

・ 軌道要素

Epoch 2011 July 18.0 TT = JDT 2455760.5
T 2011 June 29.34320 TT                                 MPC
q   6.7799540            (2000.0)            P               Q
z  +0.0003265      Peri.  135.91794     +0.60403948     +0.51279294
 +/-0.0000156      Node   142.24649     -0.63651252     -0.15022215
e   0.9977865      Incl.   94.85898     +0.47957076     -0.84526724
From 55 observations 2011 Aug. 17-Nov. 23, mean residual 0".4.

・ 光度変化

        m1 = 7.0 + 5 logΔ + 10.0 log r

---------------------------------------------------------------------

軌道要素はM.P.E.C. 2011-W48に掲載されたものです。
光度グラフはComet for Windowsで作成したものです。

---------------------------------------------------------------------

Copyright(C) Seiichi Yoshida (comet@aerith.net). All rights reserved.